TimePDT,TemperatureF,Dew PointF,Humidity,Sea Level PressureIn,VisibilityMPH,Wind Direction,Wind SpeedMPH,Gust SpeedMPH,PrecipitationIn,Events,Conditions,WindDirDegrees,DateUTC
12:53 AM,68.0,42.1,39,29.94,10.0,NW,16.1,-,N/A,,Clear,310,2013-08-20 07:53:00
1:53 AM,69.1,43.0,39,29.94,10.0,NW,15.0,-,N/A,,Clear,310,2013-08-20 08:53:00
2:53 AM,66.9,43.0,42,29.94,10.0,NW,15.0,24.2,N/A,,Clear,320,2013-08-20 09:53:00
3:53 AM,64.9,41.0,42,29.96,10.0,Calm,Calm,-,N/A,,Clear,0,2013-08-20 10:53:00
4:53 AM,66.0,43.0,43,29.98,10.0,WNW,9.2,17.3,N/A,,Clear,300,2013-08-20 11:53:00
5:53 AM,64.0,42.1,45,30.00,10.0,NW,8.1,-,N/A,,Clear,310,2013-08-20 12:53:00
6:53 AM,64.0,43.0,46,30.01,10.0,WNW,11.5,-,N/A,,Clear,290,2013-08-20 13:53:00
7:53 AM,68.0,42.1,39,30.02,10.0,NNW,12.7,-,N/A,,Clear,330,2013-08-20 14:53:00
8:53 AM,72.0,39.0,30,30.03,10.0,NNW,12.7,-,N/A,,Clear,330,2013-08-20 15:53:00
9:53 AM,75.0,35.1,23,30.03,10.0,NNW,11.5,-,N/A,,Clear,340,2013-08-20 16:53:00
10:53 AM,77.0,34.0,21,30.03,10.0,NW,8.1,-,N/A,,Clear,310,2013-08-20 17:53:00
11:53 AM,79.0,32.0,18,30.02,10.0,NW,5.8,-,N/A,,Clear,310,2013-08-20 18:53:00
12:53 PM,82.0,30.0,15,30.01,10.0,NW,9.2,-,N/A,,Clear,320,2013-08-20 19:53:00
1:53 PM,82.9,30.0,15,29.99,10.0,WSW,4.6,-,N/A,,Clear,250,2013-08-20 20:53:00
2:53 PM,84.9,32.0,15,29.97,10.0,Variable,4.6,-,N/A,,Clear,0,2013-08-20 21:53:00
3:53 PM,84.9,34.0,16,29.95,10.0,SSE,8.1,-,N/A,,Clear,150,2013-08-20 22:53:00
4:53 PM,84.9,36.0,17,29.94,10.0,SW,6.9,-,N/A,,Clear,230,2013-08-20 23:53:00
5:53 PM,84.9,34.0,16,29.93,10.0,Calm,Calm,-,N/A,,Clear,0,2013-08-21 00:53:00
6:53 PM,82.9,35.1,18,29.92,10.0,Calm,Calm,-,N/A,,Clear,0,2013-08-21 01:53:00
7:53 PM,77.0,39.0,25,29.93,10.0,SW,6.9,-,N/A,,Clear,230,2013-08-21 02:53:00
8:53 PM,75.0,39.0,27,29.95,10.0,Calm,Calm,-,N/A,,Clear,0,2013-08-21 03:53:00
9:53 PM,70.0,39.9,33,29.96,10.0,Calm,Calm,-,N/A,,Clear,0,2013-08-21 04:53:00
10:53 PM,66.0,39.0,37,29.97,10.0,NW,3.5,-,N/A,,Clear,310,2013-08-21 05:53:00
11:53 PM,71.1,37.0,29,29.97,10.0,NW,9.2,-,N/A,,Clear,310,2013-08-21 06:53:00